Time,TemperatureF,DewpointF,PressureIn,WindDirection,WindDirectionDegrees,WindSpeedMPH,WindSpeedGustMPH,Humidity,HourlyPrecipIn,Conditions,Clouds,dailyrainin,SoftwareType,DateUTC
2013-04-28 00:01:00,44.2,28.6,30.41,ENE,62,1.0,2.0,54,0.00,,,0.00,meteohub,2013-04-28 04:01:00,
2013-04-28 00:02:00,44.2,28.2,30.41,ENE,62,1.0,2.0,53,0.00,,,0.00,meteohub,2013-04-28 04:02:00,
2013-04-28 00:07:00,44.8,28.2,30.41,ENE,62,0.0,2.0,52,0.00,,,0.00,meteohub,2013-04-28 04:07:00,
2013-04-28 00:12:00,44.6,28.9,30.41,ENE,62,0.0,2.0,54,0.00,,,0.00,meteohub,2013-04-28 04:12:00,
2013-04-28 00:17:00,45.0,28.4,30.41,ENE,62,0.0,1.0,52,0.00,,,0.00,meteohub,2013-04-28 04:17:00,
2013-04-28 00:22:00,44.6,28.9,30.41,ENE,62,0.0,1.0,54,0.00,,,0.00,meteohub,2013-04-28 04:22:00,
2013-04-28 00:27:00,44.2,29.1,30.41,ENE,62,1.0,2.0,55,0.00,,,0.00,meteohub,2013-04-28 04:27:00,
2013-04-28 00:32:00,43.7,28.6,30.41,ENE,62,1.0,2.0,55,0.00,,,0.00,meteohub,2013-04-28 04:32:00,
2013-04-28 00:37:00,44.1,28.0,30.41,ENE,62,1.0,2.0,53,0.00,,,0.00,meteohub,2013-04-28 04:37:00,
2013-04-28 00:42:00,44.4,28.4,30.40,ENE,62,1.0,2.0,53,0.00,,,0.00,meteohub,2013-04-28 04:42:00,
2013-04-28 00:47:00,44.4,28.8,30.40,ENE,62,0.0,2.0,54,0.00,,,0.00,meteohub,2013-04-28 04:47:00,
2013-04-28 00:52:00,44.4,28.4,30.40,ENE,62,1.0,2.0,53,0.00,,,0.00,meteohub,2013-04-28 04:52:00,
2013-04-28 00:57:00,44.6,28.6,30.40,ENE,62,1.0,2.0,53,0.00,,,0.00,meteohub,2013-04-28 04:57:00,
2013-04-28 01:02:00,44.2,28.6,30.40,ENE,62,2.0,2.0,54,0.00,,,0.00,meteohub,2013-04-28 05:02:00,
2013-04-28 01:07:00,43.9,29.7,30.40,ENE,62,1.0,2.0,57,0.00,,,0.00,meteohub,2013-04-28 05:07:00,
2013-04-28 01:12:00,43.3,30.0,30.40,ENE,62,1.0,2.0,59,0.00,,,0.00,meteohub,2013-04-28 05:12:00,
2013-04-28 01:17:00,43.2,28.9,30.40,ENE,62,1.0,2.0,57,0.00,,,0.00,meteohub,2013-04-28 05:17:00,
2013-04-28 01:22:00,43.3,28.2,30.40,ENE,62,0.0,2.0,55,0.00,,,0.00,meteohub,2013-04-28 05:22:00,
2013-04-28 01:27:00,43.7,28.6,30.40,ENE,62,1.0,2.0,55,0.00,,,0.00,meteohub,2013-04-28 05:27:00,
2013-04-28 01:32:00,43.9,28.4,30.40,ENE,62,0.0,1.0,54,0.00,,,0.00,meteohub,2013-04-28 05:32:00,
2013-04-28 01:37:00,44.1,27.1,30.40,ENE,62,0.0,1.0,51,0.00,,,0.00,meteohub,2013-04-28 05:37:00,
2013-04-28 01:42:00,44.2,28.2,30.40,ENE,62,1.0,1.0,53,0.00,,,0.00,meteohub,2013-04-28 05:42:00,
2013-04-28 01:47:00,44.1,28.0,30.40,ENE,62,1.0,2.0,53,0.00,,,0.00,meteohub,2013-04-28 05:47:00,
2013-04-28 01:52:00,44.2,28.2,30.40,ENE,62,1.0,2.0,53,0.00,,,0.00,meteohub,2013-04-28 05:52:00,
2013-04-28 01:57:00,44.1,28.4,30.40,ENE,62,1.0,2.0,54,0.00,,,0.00,meteohub,2013-04-28 05:57:00,
2013-04-28 02:02:00,44.1,28.0,30.40,ENE,62,0.0,2.0,53,0.00,,,0.00,meteohub,2013-04-28 06:02:00,
2013-04-28 02:07:00,44.1,28.0,30.40,ENE,62,1.0,2.0,53,0.00,,,0.00,meteohub,2013-04-28 06:07:00,
2013-04-28 02:12:00,43.9,29.7,30.39,ENE,62,0.0,2.0,57,0.00,,,0.00,meteohub,2013-04-28 06:12:00,
2013-04-28 02:17:00,43.2,28.6,30.40,ENE,62,0.0,2.0,56,0.00,,,0.00,meteohub,2013-04-28 06:17:00,
2013-04-28 02:22:00,43.2,28.9,30.39,ENE,62,1.0,2.0,57,0.00,,,0.00,meteohub,2013-04-28 06:22:00,
2013-04-28 02:27:00,42.4,29.1,30.39,ENE,62,1.0,2.0,59,0.00,,,0.00,meteohub,2013-04-28 06:27:00,
2013-04-28 02:32:00,42.3,28.0,30.39,ENE,62,0.0,2.0,57,0.00,,,0.00,meteohub,2013-04-28 06:32:00,
2013-04-28 02:36:00,42.8,28.2,30.39,ENE,62,0.0,2.0,56,0.00,,,0.00,meteohub,2013-04-28 06:36:00,
2013-04-28 02:41:00,43.2,28.0,30.39,ENE,62,0.0,1.0,55,0.00,,,0.00,meteohub,2013-04-28 06:41:00,
2013-04-28 02:47:00,43.3,28.2,30.39,ENE,62,0.0,1.0,55,0.00,,,0.00,meteohub,2013-04-28 06:47:00,
2013-04-28 02:52:00,43.7,28.6,30.39,ENE,62,1.0,1.0,55,0.00,,,0.00,meteohub,2013-04-28 06:52:00,
2013-04-28 02:57:00,43.2,28.9,30.39,ENE,62,1.0,1.0,57,0.00,,,0.00,meteohub,2013-04-28 06:57:00,
2013-04-28 03:02:00,42.4,28.8,30.39,ENE,62,0.0,2.0,58,0.00,,,0.00,meteohub,2013-04-28 07:02:00,
2013-04-28 03:07:00,42.6,28.4,30.38,ENE,62,0.0,2.0,57,0.00,,,0.00,meteohub,2013-04-28 07:07:00,
2013-04-28 03:12:00,42.6,28.9,30.39,ENE,62,1.0,2.0,58,0.00,,,0.00,meteohub,2013-04-28 07:12:00,
2013-04-28 03:17:00,42.1,28.8,30.38,ENE,62,1.0,2.0,59,0.00,,,0.00,meteohub,2013-04-28 07:17:00,
2013-04-28 03:22:00,42.1,29.1,30.38,ENE,62,1.0,2.0,60,0.00,,,0.00,meteohub,2013-04-28 07:22:00,
2013-04-28 03:27:00,41.7,29.3,30.38,ENE,62,1.0,2.0,61,0.00,,,0.00,meteohub,2013-04-28 07:27:00,
2013-04-28 03:32:00,41.5,29.5,30.38,ENE,62,2.0,2.0,62,0.00,,,0.00,meteohub,2013-04-28 07:32:00,
2013-04-28 03:37:00,41.2,29.5,30.38,ENE,62,1.0,2.0,63,0.00,,,0.00,meteohub,2013-04-28 07:37:00,
2013-04-28 03:42:00,41.4,29.7,30.38,ENE,62,1.0,2.0,63,0.00,,,0.00,meteohub,2013-04-28 07:42:00,
2013-04-28 03:47:00,41.4,28.6,30.38,ENE,62,0.0,2.0,60,0.00,,,0.00,meteohub,2013-04-28 07:47:00,
2013-04-28 03:52:00,42.1,27.9,30.38,ENE,62,0.0,2.0,57,0.00,,,0.00,meteohub,2013-04-28 07:52:00,
2013-04-28 03:57:00,42.6,29.3,30.38,ENE,62,0.0,2.0,59,0.00,,,0.00,meteohub,2013-04-28 07:57:00,
2013-04-28 04:02:00,42.4,28.8,30.38,ENE,62,0.0,1.0,58,0.00,,,0.00,meteohub,2013-04-28 08:02:00,
2013-04-28 04:07:00,42.1,28.8,30.38,ENE,62,0.0,1.0,59,0.00,,,0.00,meteohub,2013-04-28 08:07:00,
2013-04-28 04:12:00,42.1,29.1,30.38,ENE,62,1.0,1.0,60,0.00,,,0.00,meteohub,2013-04-28 08:12:00,
2013-04-28 04:17:00,41.7,29.3,30.38,ENE,62,0.0,1.0,61,0.00,,,0.00,meteohub,2013-04-28 08:17:00,
2013-04-28 04:22:00,42.1,28.4,30.38,ENE,62,0.0,1.0,58,0.00,,,0.00,meteohub,2013-04-28 08:22:00,
2013-04-28 04:27:00,43.0,28.8,30.38,ENE,62,0.0,1.0,57,0.00,,,0.00,meteohub,2013-04-28 08:27:00,
2013-04-28 04:32:00,43.2,28.9,30.37,ENE,62,1.0,1.0,57,0.00,,,0.00,meteohub,2013-04-28 08:32:00,
2013-04-28 04:37:00,43.2,28.9,30.37,ENE,62,1.0,1.0,57,0.00,,,0.00,meteohub,2013-04-28 08:37:00,
2013-04-28 04:42:00,43.0,29.3,30.37,ENE,62,0.0,1.0,58,0.00,,,0.00,meteohub,2013-04-28 08:42:00,
2013-04-28 04:47:00,43.0,28.8,30.37,ENE,62,1.0,1.0,57,0.00,,,0.00,meteohub,2013-04-28 08:47:00,
2013-04-28 04:52:00,42.6,29.3,30.37,ENE,62,1.0,2.0,59,0.00,,,0.00,meteohub,2013-04-28 08:52:00,
2013-04-28 04:57:00,42.1,29.7,30.37,ENE,62,2.0,2.0,61,0.00,,,0.00,meteohub,2013-04-28 08:57:00,
2013-04-28 05:02:00,41.5,29.5,30.37,ENE,62,2.0,3.0,62,0.00,,,0.00,meteohub,2013-04-28 09:02:00,
2013-04-28 05:07:00,41.5,28.8,30.37,ENE,62,2.0,3.0,60,0.00,,,0.00,meteohub,2013-04-28 09:07:00,
2013-04-28 05:12:00,42.1,28.8,30.37,ENE,62,1.0,3.0,59,0.00,,,0.00,meteohub,2013-04-28 09:12:00,
2013-04-28 05:17:00,43.0,29.3,30.37,ENE,62,0.0,2.0,58,0.00,,,0.00,meteohub,2013-04-28 09:17:00,
2013-04-28 05:22:00,43.5,28.9,30.37,ENE,62,0.0,2.0,56,0.00,,,0.00,meteohub,2013-04-28 09:22:00,
2013-04-28 05:27:00,44.2,28.6,30.37,ENE,62,0.0,2.0,54,0.00,,,0.00,meteohub,2013-04-28 09:27:00,
2013-04-28 05:32:00,44.1,28.4,30.37,ENE,62,0.0,2.0,54,0.00,,,0.00,meteohub,2013-04-28 09:32:00,
2013-04-28 05:37:00,43.5,28.0,30.37,ENE,62,0.0,2.0,54,0.00,,,0.00,meteohub,2013-04-28 09:37:00,
2013-04-28 05:42:00,43.5,28.0,30.37,ENE,62,0.0,1.0,54,0.00,,,0.00,meteohub,2013-04-28 09:42:00,
2013-04-28 05:47:00,43.3,28.2,30.37,ENE,62,0.0,1.0,55,0.00,,,0.00,meteohub,2013-04-28 09:47:00,
2013-04-28 05:52:00,43.2,28.6,30.37,ENE,62,0.0,1.0,56,0.00,,,0.00,meteohub,2013-04-28 09:52:00,
2013-04-28 05:57:00,43.3,28.8,30.37,ENE,62,0.0,1.0,56,0.00,,,0.00,meteohub,2013-04-28 09:57:00,
2013-04-28 06:02:00,43.3,28.8,30.37,ENE,62,0.0,1.0,56,0.00,,,0.00,meteohub,2013-04-28 10:02:00,
2013-04-28 06:07:00,43.3,28.2,30.37,ENE,62,0.0,1.0,55,0.00,,,0.00,meteohub,2013-04-28 10:07:00,
2013-04-28 06:12:00,43.3,28.2,30.37,ENE,62,1.0,1.0,55,0.00,,,0.00,meteohub,2013-04-28 10:12:00,
2013-04-28 06:17:00,42.8,28.6,30.37,ENE,62,1.0,2.0,57,0.00,,,0.00,meteohub,2013-04-28 10:17:00,
2013-04-28 06:22:00,42.4,29.1,30.37,ENE,62,1.0,2.0,59,0.00,,,0.00,meteohub,2013-04-28 10:22:00,
2013-04-28 06:27:00,42.1,28.8,30.37,ENE,62,1.0,2.0,59,0.00,,,0.00,meteohub,2013-04-28 10:27:00,
2013-04-28 06:32:00,42.3,28.6,30.37,ENE,62,1.0,2.0,58,0.00,,,0.00,meteohub,2013-04-28 10:32:00,
2013-04-28 06:37:00,42.6,28.4,30.38,ENE,62,0.0,2.0,57,0.00,,,0.00,meteohub,2013-04-28 10:37:00,
2013-04-28 06:42:00,43.5,28.9,30.38,ENE,61,0.0,2.0,56,0.00,,,0.00,meteohub,2013-04-28 10:42:00,
2013-04-28 06:47:00,44.1,28.4,30.38,ENE,61,1.0,2.0,54,0.00,,,0.00,meteohub,2013-04-28 10:47:00,
2013-04-28 06:52:00,44.6,28.9,30.38,ENE,61,0.0,2.0,54,0.00,,,0.00,meteohub,2013-04-28 10:52:00,
2013-04-28 06:57:00,45.1,28.0,30.38,ENE,61,0.0,1.0,51,0.00,,,0.00,meteohub,2013-04-28 10:57:00,
2013-04-28 07:02:00,46.2,29.5,30.38,ENE,61,0.0,1.0,52,0.00,,,0.00,meteohub,2013-04-28 11:02:00,
2013-04-28 07:07:00,47.1,29.5,30.38,ENE,61,0.0,1.0,50,0.00,,,0.00,meteohub,2013-04-28 11:07:00,
2013-04-28 07:12:00,47.8,30.0,30.39,ENE,61,0.0,0.0,50,0.00,,,0.00,meteohub,2013-04-28 11:12:00,
2013-04-28 07:17:00,48.9,31.1,30.39,SE,125,0.0,1.0,50,0.00,,,0.00,meteohub,2013-04-28 11:17:00,
2013-04-28 07:22:00,49.8,31.5,30.39,SE,125,0.0,1.0,49,0.00,,,0.00,meteohub,2013-04-28 11:22:00,
2013-04-28 07:27:00,50.7,30.7,30.39,SE,125,0.0,1.0,46,0.00,,,0.00,meteohub,2013-04-28 11:27:00,
2013-04-28 07:32:00,51.4,30.7,30.39,ESE,116,1.0,1.0,45,0.00,,,0.00,meteohub,2013-04-28 11:32:00,
2013-04-28 07:37:00,51.6,32.0,30.40,ESE,116,0.0,2.0,47,0.00,,,0.00,meteohub,2013-04-28 11:37:00,
2013-04-28 07:42:00,52.0,30.7,30.40,SE,135,0.0,2.0,44,0.00,,,0.00,meteohub,2013-04-28 11:42:00,
2013-04-28 07:47:00,52.2,33.1,30.40,SE,136,0.0,3.0,48,0.00,,,0.00,meteohub,2013-04-28 11:47:00,
2013-04-28 07:52:00,52.3,32.2,30.40,SE,136,1.0,3.0,46,0.00,,,0.00,meteohub,2013-04-28 11:52:00,
2013-04-28 07:57:00,52.7,31.5,30.40,East,98,0.0,3.0,44,0.00,,,0.00,meteohub,2013-04-28 11:57:00,
2013-04-28 08:02:00,53.1,32.9,30.40,East,98,1.0,5.0,46,0.00,,,0.00,meteohub,2013-04-28 12:02:00,
2013-04-28 08:07:00,53.4,31.5,30.40,SE,140,2.0,5.0,43,0.00,,,0.00,meteohub,2013-04-28 12:07:00,
2013-04-28 08:12:00,53.8,32.9,30.40,SSE,151,0.0,4.0,45,0.00,,,0.00,meteohub,2013-04-28 12:12:00,
2013-04-28 08:17:00,54.1,32.7,30.40,SSE,151,2.0,4.0,44,0.00,,,0.00,meteohub,2013-04-28 12:17:00,
2013-04-28 08:22:00,54.3,31.6,30.40,SSE,153,1.0,3.0,42,0.00,,,0.00,meteohub,2013-04-28 12:22:00,
2013-04-28 08:27:00,54.7,32.5,30.40,SSE,153,0.0,3.0,43,0.00,,,0.00,meteohub,2013-04-28 12:27:00,
2013-04-28 08:32:00,54.9,32.2,30.40,SSE,153,3.0,3.0,42,0.00,,,0.00,meteohub,2013-04-28 12:32:00,
2013-04-28 08:37:00,55.0,32.9,30.40,SE,146,1.0,3.0,43,0.00,,,0.00,meteohub,2013-04-28 12:37:00,
2013-04-28 08:42:00,55.2,33.1,30.40,SE,144,2.0,5.0,43,0.00,,,0.00,meteohub,2013-04-28 12:42:00,
2013-04-28 08:47:00,55.4,32.7,30.40,SE,128,6.0,6.0,42,0.00,,,0.00,meteohub,2013-04-28 12:47:00,
2013-04-28 08:52:00,55.6,32.9,30.40,SSE,149,2.0,6.0,42,0.00,,,0.00,meteohub,2013-04-28 12:52:00,
2013-04-28 08:57:00,55.8,35.2,30.40,SE,143,4.0,6.0,46,0.00,,,0.00,meteohub,2013-04-28 12:57:00,
2013-04-28 09:02:00,55.9,33.3,30.40,SE,143,4.0,6.0,42,0.00,,,0.00,meteohub,2013-04-28 13:02:00,
2013-04-28 09:07:00,55.9,33.8,30.40,SSW,196,3.0,6.0,43,0.00,,,0.00,meteohub,2013-04-28 13:07:00,
2013-04-28 09:13:00,56.1,34.0,30.39,SE,144,2.0,6.0,43,0.00,,,0.00,meteohub,2013-04-28 13:13:00,
2013-04-28 09:18:00,56.1,34.0,30.39,South,169,1.0,6.0,43,0.00,,,0.00,meteohub,2013-04-28 13:18:00,
2013-04-28 09:23:00,56.5,33.6,30.39,SSE,153,5.0,6.0,42,0.00,,,0.00,meteohub,2013-04-28 13:23:00,
2013-04-28 09:28:00,56.5,34.3,30.39,SSE,167,3.0,7.0,43,0.00,,,0.00,meteohub,2013-04-28 13:28:00,
2013-04-28 09:33:00,56.7,35.6,30.39,SE,142,3.0,7.0,45,0.00,,,0.00,meteohub,2013-04-28 13:33:00,
2013-04-28 09:38:00,56.7,36.7,30.39,SSE,158,1.0,6.0,47,0.00,,,0.00,meteohub,2013-04-28 13:38:00,
2013-04-28 09:43:00,57.0,35.2,30.39,SE,132,2.0,10.0,44,0.00,,,0.00,meteohub,2013-04-28 13:43:00,
2013-04-28 09:48:00,57.0,35.2,30.39,South,177,1.0,10.0,44,0.00,,,0.00,meteohub,2013-04-28 13:48:00,
2013-04-28 09:53:00,57.4,36.1,30.39,SE,140,6.0,10.0,45,0.00,,,0.00,meteohub,2013-04-28 13:53:00,
2013-04-28 09:58:00,57.4,35.6,30.39,SE,143,4.0,10.0,44,0.00,,,0.00,meteohub,2013-04-28 13:58:00,
2013-04-28 10:03:00,57.7,37.6,30.38,South,169,3.0,10.0,47,0.00,,,0.00,meteohub,2013-04-28 14:03:00,
2013-04-28 10:08:00,57.7,36.5,30.38,SSE,161,3.0,10.0,45,0.00,,,0.00,meteohub,2013-04-28 14:08:00,
2013-04-28 10:13:00,57.9,36.1,30.38,ESE,112,4.0,7.0,44,0.00,,,0.00,meteohub,2013-04-28 14:13:00,
2013-04-28 10:18:00,58.3,36.5,30.38,SW,221,8.0,8.0,44,0.00,,,0.00,meteohub,2013-04-28 14:18:00,
2013-04-28 10:23:00,58.1,36.3,30.38,SSE,159,5.0,11.0,44,0.00,,,0.00,meteohub,2013-04-28 14:23:00,
2013-04-28 10:28:00,58.5,37.8,30.38,ESE,119,2.0,11.0,46,0.00,,,0.00,meteohub,2013-04-28 14:28:00,
2013-04-28 10:33:00,58.8,38.1,30.38,SSE,151,4.0,10.0,46,0.00,,,0.00,meteohub,2013-04-28 14:33:00,
2013-04-28 10:38:00,58.6,37.4,30.38,South,181,3.0,9.0,45,0.00,,,0.00,meteohub,2013-04-28 14:38:00,
2013-04-28 10:43:00,58.8,37.0,30.38,SE,134,2.0,8.0,44,0.00,,,0.00,meteohub,2013-04-28 14:43:00,
2013-04-28 10:48:00,59.2,36.1,30.38,South,182,3.0,8.0,42,0.00,,,0.00,meteohub,2013-04-28 14:48:00,
2013-04-28 10:53:00,59.2,36.1,30.38,SE,145,5.0,7.0,42,0.00,,,0.00,meteohub,2013-04-28 14:53:00,
2013-04-28 10:58:00,59.2,36.7,30.38,SE,131,0.0,8.0,43,0.00,,,0.00,meteohub,2013-04-28 14:58:00,
2013-04-28 11:03:00,59.7,37.8,30.38,South,186,4.0,8.0,44,0.00,,,0.00,meteohub,2013-04-28 15:03:00,
2013-04-28 11:08:00,59.7,37.8,30.38,South,182,1.0,8.0,44,0.00,,,0.00,meteohub,2013-04-28 15:08:00,
2013-04-28 11:13:00,59.7,37.8,30.38,WSW,241,4.0,8.0,44,0.00,,,0.00,meteohub,2013-04-28 15:13:00,
2013-04-28 11:18:00,60.1,37.6,30.37,SW,232,3.0,8.0,43,0.00,,,0.00,meteohub,2013-04-28 15:18:00,
2013-04-28 11:23:00,60.3,37.0,30.37,South,171,3.0,6.0,42,0.00,,,0.00,meteohub,2013-04-28 15:23:00,
2013-04-28 11:28:00,60.4,36.7,30.37,SSW,207,0.0,6.0,41,0.00,,,0.00,meteohub,2013-04-28 15:28:00,
2013-04-28 11:34:00,61.0,35.8,30.37,West,276,3.0,6.0,39,0.00,,,0.00,meteohub,2013-04-28 15:34:00,
2013-04-28 11:38:00,61.3,36.1,30.37,SSW,192,3.0,7.0,39,0.00,,,0.00,meteohub,2013-04-28 15:38:00,
2013-04-28 11:44:00,61.3,37.4,30.36,SW,223,0.0,7.0,41,0.00,,,0.00,meteohub,2013-04-28 15:44:00,
2013-04-28 11:49:00,61.9,40.3,30.36,WNW,284,1.0,8.0,45,0.00,,,0.00,meteohub,2013-04-28 15:49:00,
2013-04-28 11:54:00,61.7,37.2,30.36,SE,142,5.0,8.0,40,0.00,,,0.00,meteohub,2013-04-28 15:54:00,
2013-04-28 11:59:00,61.7,37.8,30.36,ESE,109,2.0,8.0,41,0.00,,,0.00,meteohub,2013-04-28 15:59:00,
2013-04-28 12:04:00,62.1,38.1,30.36,SE,128,4.0,7.0,41,0.00,,,0.00,meteohub,2013-04-28 16:04:00,
2013-04-28 12:09:00,62.4,39.0,30.35,SW,223,4.0,7.0,42,0.00,,,0.00,meteohub,2013-04-28 16:09:00,
2013-04-28 12:14:00,62.8,35.4,30.35,SW,217,3.0,9.0,36,0.00,,,0.00,meteohub,2013-04-28 16:14:00,
2013-04-28 12:19:00,63.0,37.6,30.35,SW,223,3.0,11.0,39,0.00,,,0.00,meteohub,2013-04-28 16:19:00,
2013-04-28 12:24:00,63.0,38.3,30.35,SSW,211,2.0,11.0,40,0.00,,,0.00,meteohub,2013-04-28 16:24:00,
2013-04-28 12:29:00,63.0,36.3,30.35,East,101,1.0,11.0,37,0.00,,,0.00,meteohub,2013-04-28 16:29:00,
2013-04-28 12:34:00,63.3,36.7,30.34,SW,229,5.0,8.0,37,0.00,,,0.00,meteohub,2013-04-28 16:34:00,
2013-04-28 12:39:00,63.1,38.5,30.34,SSE,167,0.0,12.0,40,0.00,,,0.00,meteohub,2013-04-28 16:39:00,
2013-04-28 12:44:00,63.9,38.5,30.34,WSW,252,1.0,12.0,39,0.00,,,0.00,meteohub,2013-04-28 16:44:00,
2013-04-28 12:49:00,64.2,37.4,30.33,South,171,2.0,12.0,37,0.00,,,0.00,meteohub,2013-04-28 16:49:00,
2013-04-28 12:54:00,64.2,40.6,30.33,SSW,201,2.0,7.0,42,0.00,,,0.00,meteohub,2013-04-28 16:54:00,
2013-04-28 12:59:00,64.9,40.1,30.33,WNW,296,1.0,7.0,40,0.00,,,0.00,meteohub,2013-04-28 16:59:00,
2013-04-28 13:04:00,64.6,37.8,30.32,WSW,246,7.0,7.0,37,0.00,,,0.00,meteohub,2013-04-28 17:04:00,
2013-04-28 13:09:00,64.6,36.3,30.32,WNW,290,2.0,7.0,35,0.00,,,0.00,meteohub,2013-04-28 17:09:00,
2013-04-28 13:14:00,64.9,38.1,30.33,NNW,336,6.0,7.0,37,0.00,,,0.00,meteohub,2013-04-28 17:14:00,
2013-04-28 13:19:00,65.1,35.2,30.32,South,171,2.0,7.0,33,0.00,,,0.00,meteohub,2013-04-28 17:19:00,
2013-04-28 13:24:00,65.1,38.1,30.32,WNW,295,3.0,7.0,37,0.00,,,0.00,meteohub,2013-04-28 17:24:00,
2013-04-28 13:29:00,65.5,35.6,30.32,WSW,256,1.0,7.0,33,0.00,,,0.00,meteohub,2013-04-28 17:29:00,
2013-04-28 13:34:00,65.8,36.7,30.31,SSW,201,7.0,7.0,34,0.00,,,0.00,meteohub,2013-04-28 17:34:00,
2013-04-28 13:39:00,65.1,36.1,30.31,SW,232,4.0,10.0,34,0.00,,,0.00,meteohub,2013-04-28 17:39:00,
2013-04-28 13:44:00,64.9,37.4,30.31,SW,230,7.0,11.0,36,0.00,,,0.00,meteohub,2013-04-28 17:44:00,
2013-04-28 13:49:00,65.1,34.5,30.31,NW,323,0.0,11.0,32,0.00,,,0.00,meteohub,2013-04-28 17:49:00,
2013-04-28 13:54:00,65.5,34.9,30.30,SSW,196,1.0,11.0,32,0.00,,,0.00,meteohub,2013-04-28 17:54:00,
2013-04-28 13:59:00,65.7,35.8,30.30,West,263,2.0,10.0,33,0.00,,,0.00,meteohub,2013-04-28 17:59:00,
2013-04-28 14:04:00,65.7,36.5,30.30,WNW,288,0.0,10.0,34,0.00,,,0.00,meteohub,2013-04-28 18:04:00,
2013-04-28 14:09:00,66.0,38.3,30.30,SW,224,2.0,8.0,36,0.00,,,0.00,meteohub,2013-04-28 18:09:00,
2013-04-28 14:14:00,66.0,36.1,30.30,ENE,65,3.0,7.0,33,0.00,,,0.00,meteohub,2013-04-28 18:14:00,
2013-04-28 14:19:00,66.6,36.5,30.30,WSW,248,5.0,7.0,33,0.00,,,0.00,meteohub,2013-04-28 18:19:00,
2013-04-28 14:24:00,66.6,34.2,30.29,WNW,294,1.0,7.0,30,0.00,,,0.00,meteohub,2013-04-28 18:24:00,
2013-04-28 14:29:00,66.7,37.4,30.29,NNE,16,3.0,8.0,34,0.00,,,0.00,meteohub,2013-04-28 18:29:00,
2013-04-28 14:34:00,66.9,40.5,30.29,WNW,300,1.0,8.0,38,0.00,,,0.00,meteohub,2013-04-28 18:34:00,
2013-04-28 14:39:00,66.9,37.6,30.29,SW,236,3.0,8.0,34,0.00,,,0.00,meteohub,2013-04-28 18:39:00,
2013-04-28 14:44:00,66.7,38.3,30.28,SSW,201,4.0,6.0,35,0.00,,,0.00,meteohub,2013-04-28 18:44:00,
2013-04-28 14:50:00,66.6,38.8,30.28,SSW,206,3.0,6.0,36,0.00,,,0.00,meteohub,2013-04-28 18:50:00,
2013-04-28 14:55:00,66.6,38.8,30.27,SSW,204,2.0,8.0,36,0.00,,,0.00,meteohub,2013-04-28 18:55:00,
2013-04-28 15:00:00,66.4,33.1,30.28,NE,53,0.0,8.0,29,0.00,,,0.00,meteohub,2013-04-28 19:00:00,
2013-04-28 15:05:00,66.6,35.8,30.27,SSE,147,3.0,7.0,32,0.00,,,0.00,meteohub,2013-04-28 19:05:00,
2013-04-28 15:10:00,66.9,38.3,30.27,SSE,151,2.0,7.0,35,0.00,,,0.00,meteohub,2013-04-28 19:10:00,
2013-04-28 15:15:00,67.3,38.7,30.27,NW,305,3.0,7.0,35,0.00,,,0.00,meteohub,2013-04-28 19:15:00,
2013-04-28 15:20:00,67.5,36.5,30.27,West,263,1.0,6.0,32,0.00,,,0.00,meteohub,2013-04-28 19:20:00,
2013-04-28 15:25:00,67.8,35.2,30.26,WSW,255,3.0,7.0,30,0.00,,,0.00,meteohub,2013-04-28 19:25:00,
2013-04-28 15:30:00,67.8,37.6,30.26,West,271,3.0,7.0,33,0.00,,,0.00,meteohub,2013-04-28 19:30:00,
2013-04-28 15:35:00,68.2,37.2,30.26,WSW,245,2.0,7.0,32,0.00,,,0.00,meteohub,2013-04-28 19:35:00,
2013-04-28 15:40:00,68.5,36.7,30.25,SW,236,0.0,7.0,31,0.00,,,0.00,meteohub,2013-04-28 19:40:00,
2013-04-28 15:45:00,69.3,36.5,30.25,WSW,238,4.0,7.0,30,0.00,,,0.00,meteohub,2013-04-28 19:45:00,
2013-04-28 15:50:00,68.4,38.1,30.25,SW,231,3.0,7.0,33,0.00,,,0.00,meteohub,2013-04-28 19:50:00,
2013-04-28 15:55:00,68.2,36.3,30.25,NW,305,2.0,10.0,31,0.00,,,0.00,meteohub,2013-04-28 19:55:00,
2013-04-28 16:00:00,68.5,38.3,30.25,NW,309,1.0,10.0,33,0.00,,,0.00,meteohub,2013-04-28 20:00:00,
2013-04-28 16:05:00,68.5,34.2,30.25,NW,318,1.0,10.0,28,0.00,,,0.00,meteohub,2013-04-28 20:05:00,
2013-04-28 16:10:00,68.4,37.4,30.25,SW,226,4.0,10.0,32,0.00,,,0.00,meteohub,2013-04-28 20:10:00,
2013-04-28 16:15:00,68.0,35.4,30.25,West,263,0.0,10.0,30,0.00,,,0.00,meteohub,2013-04-28 20:15:00,
2013-04-28 16:20:00,68.2,37.2,30.24,WNW,288,3.0,7.0,32,0.00,,,0.00,meteohub,2013-04-28 20:20:00,
2013-04-28 16:25:00,68.2,36.3,30.24,West,271,1.0,7.0,31,0.00,,,0.00,meteohub,2013-04-28 20:25:00,
2013-04-28 16:30:00,67.8,35.2,30.24,WSW,251,2.0,6.0,30,0.00,,,0.00,meteohub,2013-04-28 20:30:00,
2013-04-28 16:35:00,67.5,34.9,30.24,WNW,302,0.0,6.0,30,0.00,,,0.00,meteohub,2013-04-28 20:35:00,
2013-04-28 16:40:00,66.9,35.2,30.24,NNW,334,3.0,6.0,31,0.00,,,0.00,meteohub,2013-04-28 20:40:00,
2013-04-28 16:45:00,66.9,35.2,30.24,NW,324,0.0,6.0,31,0.00,,,0.00,meteohub,2013-04-28 20:45:00,
2013-04-28 16:50:00,66.7,35.1,30.24,NW,313,3.0,5.0,31,0.00,,,0.00,meteohub,2013-04-28 20:50:00,
2013-04-28 16:55:00,66.6,35.8,30.24,NW,307,0.0,4.0,32,0.00,,,0.00,meteohub,2013-04-28 20:55:00,
2013-04-28 17:00:00,66.4,36.3,30.24,NW,307,0.0,4.0,33,0.00,,,0.00,meteohub,2013-04-28 21:00:00,
2013-04-28 17:05:00,66.0,36.9,30.24,NW,307,0.0,4.0,34,0.00,,,0.00,meteohub,2013-04-28 21:05:00,
2013-04-28 17:10:00,66.0,34.5,30.24,WNW,294,1.0,3.0,31,0.00,,,0.00,meteohub,2013-04-28 21:10:00,
2013-04-28 17:15:00,66.0,38.3,30.24,WSW,254,1.0,3.0,36,0.00,,,0.00,meteohub,2013-04-28 21:15:00,
2013-04-28 17:20:00,65.8,36.7,30.24,WSW,254,0.0,4.0,34,0.00,,,0.00,meteohub,2013-04-28 21:20:00,
2013-04-28 17:25:00,65.7,36.5,30.24,SW,234,0.0,4.0,34,0.00,,,0.00,meteohub,2013-04-28 21:25:00,
2013-04-28 17:30:00,65.8,35.2,30.24,SW,234,0.0,3.0,32,0.00,,,0.00,meteohub,2013-04-28 21:30:00,
2013-04-28 17:35:00,65.8,38.1,30.24,SW,234,0.0,3.0,36,0.00,,,0.00,meteohub,2013-04-28 21:35:00,
2013-04-28 17:40:00,65.8,36.0,30.24,West,279,0.0,3.0,33,0.00,,,0.00,meteohub,2013-04-28 21:40:00,
2013-04-28 17:45:00,66.0,34.5,30.24,WNW,282,0.0,3.0,31,0.00,,,0.00,meteohub,2013-04-28 21:45:00,
2013-04-28 17:50:00,66.6,38.8,30.24,WNW,282,0.0,3.0,36,0.00,,,0.00,meteohub,2013-04-28 21:50:00,
2013-04-28 17:55:00,66.6,36.5,30.24,WSW,242,1.0,5.0,33,0.00,,,0.00,meteohub,2013-04-28 21:55:00,
2013-04-28 18:00:00,66.7,36.7,30.24,West,273,2.0,6.0,33,0.00,,,0.00,meteohub,2013-04-28 22:00:00,
2013-04-28 18:05:00,66.9,36.9,30.24,West,275,2.0,6.0,33,0.00,,,0.00,meteohub,2013-04-28 22:05:00,
2013-04-28 18:10:00,66.9,36.1,30.23,SW,230,2.0,6.0,32,0.00,,,0.00,meteohub,2013-04-28 22:10:00,
2013-04-28 18:15:00,66.6,35.1,30.23,West,263,2.0,6.0,31,0.00,,,0.00,meteohub,2013-04-28 22:15:00,
2013-04-28 18:20:00,66.4,34.9,30.23,WSW,249,1.0,5.0,31,0.00,,,0.00,meteohub,2013-04-28 22:20:00,
2013-04-28 18:25:00,66.0,35.2,30.23,WSW,240,1.0,4.0,32,0.00,,,0.00,meteohub,2013-04-28 22:25:00,
2013-04-28 18:30:00,65.7,36.5,30.23,SSW,201,0.0,6.0,34,0.00,,,0.00,meteohub,2013-04-28 22:30:00,
2013-04-28 18:35:00,65.5,35.6,30.23,SSW,201,0.0,6.0,33,0.00,,,0.00,meteohub,2013-04-28 22:35:00,
2013-04-28 18:40:00,64.9,36.0,30.23,South,188,0.0,6.0,34,0.00,,,0.00,meteohub,2013-04-28 22:40:00,
2013-04-28 18:45:00,64.4,36.9,30.23,SW,218,0.0,5.0,36,0.00,,,0.00,meteohub,2013-04-28 22:45:00,
2013-04-28 18:50:00,63.9,37.0,30.23,SW,224,3.0,5.0,37,0.00,,,0.00,meteohub,2013-04-28 22:50:00,
2013-04-28 18:55:00,63.3,37.2,30.22,SSW,209,1.0,5.0,38,0.00,,,0.00,meteohub,2013-04-28 22:55:00,
2013-04-28 19:00:00,63.0,37.6,30.22,SE,144,3.0,5.0,39,0.00,,,0.00,meteohub,2013-04-28 23:00:00,
2013-04-28 19:05:00,62.4,36.5,30.22,SE,141,0.0,5.0,38,0.00,,,0.00,meteohub,2013-04-28 23:05:00,
2013-04-28 19:10:00,62.1,36.1,30.22,SSE,165,4.0,5.0,38,0.00,,,0.00,meteohub,2013-04-28 23:10:00,
2013-04-28 19:16:00,61.7,37.2,30.22,South,179,1.0,7.0,40,0.00,,,0.00,meteohub,2013-04-28 23:16:00,
2013-04-28 19:21:00,61.5,36.3,30.22,South,174,1.0,7.0,39,0.00,,,0.00,meteohub,2013-04-28 23:21:00,
2013-04-28 19:26:00,61.7,37.2,30.22,South,171,3.0,7.0,40,0.00,,,0.00,meteohub,2013-04-28 23:26:00,
2013-04-28 19:31:00,61.5,36.3,30.22,South,180,1.0,7.0,39,0.00,,,0.00,meteohub,2013-04-28 23:31:00,
2013-04-28 19:36:00,61.2,37.2,30.22,SSW,213,3.0,7.0,41,0.00,,,0.00,meteohub,2013-04-28 23:36:00,
2013-04-28 19:41:00,61.0,36.5,30.22,South,184,0.0,7.0,40,0.00,,,0.00,meteohub,2013-04-28 23:41:00,
2013-04-28 19:46:00,60.8,36.9,30.22,South,174,0.0,7.0,41,0.00,,,0.00,meteohub,2013-04-28 23:46:00,
2013-04-28 19:51:00,60.4,36.7,30.22,South,174,0.0,7.0,41,0.00,,,0.00,meteohub,2013-04-28 23:51:00,
2013-04-28 19:56:00,60.3,36.5,30.22,South,178,0.0,3.0,41,0.00,,,0.00,meteohub,2013-04-28 23:56:00,
2013-04-28 20:01:00,60.1,38.1,30.22,SE,129,0.0,3.0,44,0.00,,,0.00,meteohub,2013-04-29 00:01:00,
2013-04-28 20:06:00,59.5,36.5,30.22,SE,129,0.0,3.0,42,0.00,,,0.00,meteohub,2013-04-29 00:06:00,
2013-04-28 20:11:00,59.4,36.9,30.22,SE,129,0.0,3.0,43,0.00,,,0.00,meteohub,2013-04-29 00:11:00,
2013-04-28 20:16:00,59.4,36.9,30.22,SE,129,0.0,1.0,43,0.00,,,0.00,meteohub,2013-04-29 00:16:00,
2013-04-28 20:21:00,59.4,36.9,30.22,SE,129,1.0,2.0,43,0.00,,,0.00,meteohub,2013-04-29 00:21:00,
2013-04-28 20:26:00,59.4,36.9,30.22,East,94,0.0,3.0,43,0.00,,,0.00,meteohub,2013-04-29 00:26:00,
2013-04-28 20:31:00,59.5,36.5,30.22,ENE,76,1.0,6.0,42,0.00,,,0.00,meteohub,2013-04-29 00:31:00,
2013-04-28 20:36:00,59.5,36.5,30.22,ESE,116,3.0,6.0,42,0.00,,,0.00,meteohub,2013-04-29 00:36:00,
2013-04-28 20:41:00,59.5,36.5,30.22,SE,130,1.0,6.0,42,0.00,,,0.00,meteohub,2013-04-29 00:41:00,
2013-04-28 20:46:00,59.5,36.5,30.23,ESE,104,1.0,4.0,42,0.00,,,0.00,meteohub,2013-04-29 00:46:00,
2013-04-28 20:51:00,59.4,36.3,30.23,SSE,153,0.0,5.0,42,0.00,,,0.00,meteohub,2013-04-29 00:51:00,
2013-04-28 20:56:00,59.4,36.3,30.24,ESE,123,1.0,5.0,42,0.00,,,0.00,meteohub,2013-04-29 00:56:00,
2013-04-28 21:01:00,59.4,36.9,30.24,ESE,122,1.0,5.0,43,0.00,,,0.00,meteohub,2013-04-29 01:01:00,
2013-04-28 21:06:00,59.2,36.1,30.24,SE,124,0.0,6.0,42,0.00,,,0.00,meteohub,2013-04-29 01:06:00,
2013-04-28 21:11:00,59.0,36.5,30.24,East,101,2.0,6.0,43,0.00,,,0.00,meteohub,2013-04-29 01:11:00,
2013-04-28 21:16:00,58.8,37.0,30.24,East,101,2.0,6.0,44,0.00,,,0.00,meteohub,2013-04-29 01:16:00,
2013-04-28 21:22:00,58.3,37.0,30.24,East,101,2.0,5.0,45,0.00,,,0.00,meteohub,2013-04-29 01:22:00,
2013-04-28 21:27:00,57.9,36.7,30.24,East,98,3.0,5.0,45,0.00,,,0.00,meteohub,2013-04-29 01:27:00,
2013-04-28 21:32:00,57.7,37.0,30.23,East,84,2.0,5.0,46,0.00,,,0.00,meteohub,2013-04-29 01:32:00,
2013-04-28 21:37:00,57.7,37.6,30.23,East,84,0.0,5.0,47,0.00,,,0.00,meteohub,2013-04-29 01:37:00,
2013-04-28 21:42:00,56.5,37.6,30.23,NW,319,1.0,5.0,49,0.00,,,0.00,meteohub,2013-04-29 01:42:00,
2013-04-28 21:47:00,55.2,36.9,30.23,NW,319,1.0,4.0,50,0.00,,,0.00,meteohub,2013-04-29 01:47:00,
2013-04-28 21:52:00,54.5,37.2,30.23,NW,319,0.0,4.0,52,0.00,,,0.00,meteohub,2013-04-29 01:52:00,
2013-04-28 21:57:00,54.9,37.6,30.24,NW,321,0.0,4.0,52,0.00,,,0.00,meteohub,2013-04-29 01:57:00,
2013-04-28 22:02:00,55.2,38.3,30.23,WNW,286,4.0,4.0,53,0.00,,,0.00,meteohub,2013-04-29 02:02:00,
2013-04-28 22:07:00,55.6,38.7,30.23,SW,227,4.0,6.0,53,0.00,,,0.00,meteohub,2013-04-29 02:07:00,
2013-04-28 22:12:00,56.3,38.8,30.23,WSW,242,0.0,8.0,52,0.00,,,0.00,meteohub,2013-04-29 02:12:00,
2013-04-28 22:17:00,56.5,39.6,30.23,West,265,0.0,8.0,53,0.00,,,0.00,meteohub,2013-04-29 02:17:00,
2013-04-28 22:22:00,56.1,39.2,30.23,SW,236,0.0,8.0,53,0.00,,,0.00,meteohub,2013-04-29 02:22:00,
2013-04-28 22:27:00,55.9,39.6,30.23,SSE,153,2.0,3.0,54,0.00,,,0.00,meteohub,2013-04-29 02:27:00,
2013-04-28 22:32:00,56.1,39.7,30.23,SSW,196,2.0,7.0,54,0.00,,,0.00,meteohub,2013-04-29 02:32:00,
2013-04-28 22:37:00,56.3,39.9,30.23,SSW,196,0.0,7.0,54,0.00,,,0.00,meteohub,2013-04-29 02:37:00,
2013-04-28 22:42:00,56.1,39.7,30.23,WNW,300,0.0,7.0,54,0.00,,,0.00,meteohub,2013-04-29 02:42:00,
2013-04-28 22:47:00,55.8,39.9,30.23,NNW,330,1.0,4.0,55,0.00,,,0.00,meteohub,2013-04-29 02:47:00,
2013-04-28 22:52:00,55.8,39.9,30.23,WSW,252,3.0,3.0,55,0.00,,,0.00,meteohub,2013-04-29 02:52:00,
2013-04-28 22:57:00,55.9,39.9,30.23,WSW,252,0.0,4.0,55,0.00,,,0.00,meteohub,2013-04-29 02:57:00,
2013-04-28 23:02:00,55.8,39.4,30.23,West,265,1.0,4.0,54,0.00,,,0.00,meteohub,2013-04-29 03:02:00,
2013-04-28 23:07:00,55.9,39.9,30.24,West,272,1.0,4.0,55,0.00,,,0.00,meteohub,2013-04-29 03:07:00,
2013-04-28 23:12:00,55.9,39.6,30.24,West,263,2.0,5.0,54,0.00,,,0.00,meteohub,2013-04-29 03:12:00,
2013-04-28 23:17:00,55.9,39.6,30.24,West,262,0.0,5.0,54,0.00,,,0.00,meteohub,2013-04-29 03:17:00,
2013-04-28 23:22:00,55.6,39.7,30.24,East,96,2.0,6.0,55,0.00,,,0.00,meteohub,2013-04-29 03:22:00,
2013-04-28 23:27:00,55.0,39.6,30.25,SE,128,0.0,8.0,56,0.00,,,0.00,meteohub,2013-04-29 03:27:00,
2013-04-28 23:32:00,55.0,39.6,30.25,ESE,119,0.0,8.0,56,0.00,,,0.00,meteohub,2013-04-29 03:32:00,
2013-04-28 23:37:00,54.7,39.7,30.24,SSE,155,5.0,8.0,57,0.00,,,0.00,meteohub,2013-04-29 03:37:00,
2013-04-28 23:42:00,54.5,39.6,30.24,SSE,161,5.0,9.0,57,0.00,,,0.00,meteohub,2013-04-29 03:42:00,
2013-04-28 23:47:00,54.1,39.2,30.24,SSE,161,0.0,9.0,57,0.00,,,0.00,meteohub,2013-04-29 03:47:00,
2013-04-28 23:52:00,54.1,39.2,30.25,SW,221,0.0,9.0,57,0.00,,,0.00,meteohub,2013-04-29 03:52:00,
2013-04-28 23:57:00,53.8,39.4,30.25,WSW,237,3.0,9.0,58,0.00,,,0.00,meteohub,2013-04-29 03:57:00,